GW1524 Weather Reports


time (UTC)temp
F
wind
direction
speed
knots
gust
knots
rain 1hr
in
rain 24hr
in
rain mn
in
humidity
%
barometer
mb
20260901113028 63 16 0.9 2.6 0.95 1.16 1.16 99 1017.7
20260901112028 63 35 0.9 2.6 0.84 1.01 1.01 99 1017.9
20260901111054 63 72 1.7 2.6 0.59 0.71 0.71 99 1018.0
20260901110028 64 331 1.7 2.6 0.26 0.30 0.30 99 1017.6
20260901105029 64 305 0.9 2.6 0.28 0.28 0.28 99 1016.9
20260901104029 64 339 0.9 1.7 0.26 0.26 0.26 99 1016.7
20260901103029 64 67 1.7 1.7 0.21 0.21 0.21 99 1017.1
20260901102030 64 338 0.9 1.7 0.17 0.17 0.17 99 1017.3
20260901101030 63 33 0.9 1.7 0.12 0.12 0.12 99 1017.0
20260901100030 63 3 0.0 0.9 0.05 0.05 0.05 99 1017.1
20260901095055 63 255 0.0 0.9 0.00 0.00 0.00 99 1017.1
20260901094030 63 314 0.0 0.9 0.00 0.00 0.00 99 1017.0
20260901093030 63 344 0.0 0.9 0.00 0.00 0.00 98 1017.1
20260901092030 63 358 0.0 0.9 0.00 0.00 0.00 98 1017.3
20260901091056 63 1 0.0 1.7 0.00 0.00 0.00 98 1017.2
20260901090031 63 344 0.0 0.9 0.00 0.00 0.00 98 1017.4
20260901085031 63 45 0.0 0.9 0.00 0.00 0.00 98 1017.5
20260901084031 63 22 0.0 0.0 0.00 0.00 0.00 98 1017.5
20260901083031 63 333 0.0 0.9 0.00 0.00 0.00 98 1017.7
20260901082031 64 338 0.0 0.9 0.00 0.00 0.00 98 1017.7
20260901081032 63 328 0.0 1.7 0.00 0.00 0.00 98 1017.7
20260901080032 63 41 0.0 0.9 0.00 0.00 0.00 98 1017.7
20260901075032 63 294 0.0 0.9 0.00 0.00 0.00 98 1017.6
20260901074058 63 254 0.9 1.7 0.00 0.00 0.00 98 1017.8
20260901073032 63 100 0.0 0.9 0.00 0.00 0.00 98 1017.9
20260901072123 63 285 0.9 1.7 0.00 0.00 0.00 98 1017.8
20260901071033 63 289 0.9 1.7 0.00 0.00 0.00 98 1017.6
20260901070058 63 10 0.0 0.9 0.00 0.00 0.00 97 1017.9
20260901065034 63 333 0.0 0.9 0.00 0.00 0.00 97 1018.1
20260901064034 63 358 0.0 0.0 0.00 0.00 0.00 97 1018.5
20260901063059 64 5 0.9 0.9 0.00 0.00 0.00 97 1018.7
20260901062035 64 44 0.9 0.9 0.00 0.00 0.00 97 1018.7
20260901061034 64 320 0.9 0.9 0.00 0.00 0.00 96 1018.7
20260901060045 64 325 0.0 0.9 0.00 0.00 0.00 96 1018.7
20260901055021 64 347 0.0 0.9 0.00 0.00 0.00 96 1019.0
20260901054046 64 336 0.9 1.7 0.00 0.00 0.00 95 1018.8
20260901053021 64 18 0.0 0.9 0.00 0.00 0.00 95 1018.6
20260901052021 64 0 0.0 0.9 0.00 0.00 0.00 95 1018.8
20260901051046 64 341 0.0 0.9 0.00 0.00 0.00 95 1019.0
20260901050047 64 46 0.0 1.7 0.00 0.00 0.00 95 1019.1
20260901045047 64 59 0.0 0.9 0.00 0.00 0.00 95 1019.2
20260901044022 64 11 0.0 0.9 0.00 0.00 0.00 94 1019.2
20260901043022 64 316 0.9 1.7 0.00 0.00 0.00 94 1019.1
20260901042023 64 332 0.9 0.9 0.00 0.00 0.00 94 1018.9
20260901041023 64 300 0.0 1.7 0.00 0.00 0.00 94 1018.8
20260901040022 64 26 0.0 0.9 0.00 0.00 0.00 94 1018.9
20260901035023 64 59 0.0 1.7 0.00 0.00 0.00 95 1018.9
20260901034023 64 79 0.9 1.7 0.00 0.00 0.00 95 1018.9
20260901033023 64 61 0.0 0.9 0.00 0.00 0.00 94 1019.0
20260901032024 64 330 0.0 0.9 0.00 0.00 0.00 94 1019.1
20260901031023 65 4 0.0 0.0 0.00 0.00 0.00 93 1019.3
20260901030023 65 11 0.0 0.9 0.00 0.00 0.00 92 1019.3
20260901025025 65 323 0.9 1.7 0.00 0.00 0.00 92 1019.5
20260901024050 65 324 0.0 1.7 0.00 0.00 0.00 92 1019.5
20260901023049 65 1 0.0 0.9 0.00 0.00 0.00 93 1019.5
20260901022024 65 17 0.0 0.9 0.00 0.00 0.00 92 1019.5
20260901021022 65 316 0.0 1.7 0.00 0.00 0.00 92 1019.5
20260901020022 64 328 0.0 1.7 0.00 0.00 0.00 92 1019.5
20260901015022 64 315 0.0 1.7 0.00 0.00 0.00 92 1019.3
20260901014023 65 283 0.9 1.7 0.00 0.00 0.00 92 1019.3
20260901013023 65 294 0.9 1.7 0.00 0.00 0.00 91 1019.3
20260901012023 65 296 0.9 1.7 0.00 0.00 0.00 91 1019.4
20260901011023 65 355 0.0 0.9 0.00 0.00 0.00 91 1019.4
20260901010114 65 298 0.0 0.9 0.00 0.00 0.00 90 1019.4
20260901005021 65 293 0.9 1.7 0.00 0.00 0.00 90 1019.4
20260901004021 65 325 0.0 1.7 0.00 0.00 0.00 89 1019.4
20260901003021 66 62 0.0 0.9 0.00 0.00 0.00 89 1019.5
20260901002021 66 309 0.9 1.7 0.00 0.00 0.00 88 1019.5
20260901001021 66 309 0.9 1.7 0.00 0.00 0.00 87 1019.4
20260901000022 66 323 0.9 1.7 0.00 0.00 0.00 86 1019.5
20260831235112 66 51 0.0 1.7 0.00 0.00 0.00 86 1019.4
20260831234022 67 103 0.0 0.9 0.00 0.00 0.00 85 1019.4
20260831233047 67 50 0.9 1.7 0.00 0.00 0.00 85 1019.4
20260831232023 67 69 0.0 1.7 0.00 0.00 0.00 84 1019.5
20260831231022 67 21 0.0 1.7 0.00 0.00 0.00 84 1019.7
20260831230048 68 63 0.0 1.7 0.00 0.00 0.00 83 1019.9
20260831225023 68 129 0.0 1.7 0.00 0.00 0.00 84 1019.9
20260831224023 68 115 0.0 2.6 0.00 0.00 0.00 82 1019.9
20260831223023 68 115 0.9 1.7 0.00 0.00 0.00 82 1019.9
20260831222024 69 147 0.9 1.7 0.00 0.00 0.00 80 1020.0
20260831221021 69 141 0.9 2.6 0.00 0.00 0.00 83 1019.9
20260831220021 69 133 0.0 2.6 0.00 0.00 0.00 84 1019.9
20260831215021 70 6 0.0 1.7 0.00 0.00 0.00 82 1019.8
20260831214021 70 48 0.9 0.9 0.00 0.00 0.00 80 1019.8
20260831213021 70 150 0.9 2.6 0.00 0.00 0.00 79 1019.8
20260831212111 71 312 0.9 1.7 0.00 0.00 0.00 79 1019.8
20260831211021 71 129 0.9 1.7 0.00 0.00 0.00 79 1019.8
20260831210022 71 253 0.9 3.5 0.00 0.00 0.00 75 1019.9
20260831205022 72 294 0.9 1.7 0.00 0.00 0.00 75 1019.9
20260831204022 72 255 0.9 1.7 0.00 0.00 0.00 76 1019.8
20260831203022 72 0 0.9 2.6 0.00 0.00 0.00 75 1019.8
20260831202023 71 302 0.9 1.7 0.00 0.00 0.00 74 1019.9
20260831201048 71 254 0.9 2.6 0.00 0.00 0.00 74 1019.9
20260831200048 72 355 0.9 1.7 0.00 0.00 0.00 74 1020.0
20260831195023 72 259 1.7 3.5 0.00 0.00 0.00 71 1020.1
20260831194023 72 257 1.7 3.5 0.00 0.00 0.00 72 1020.2
20260831193023 72 282 0.9 3.5 0.00 0.00 0.00 72 1020.4
20260831192024 72 258 1.7 3.5 0.00 0.00 0.00 72 1020.5
20260831191021 71 311 0.9 2.6 0.00 0.00 0.00 74 1020.5
20260831190021 71 268 0.9 2.6 0.00 0.00 0.00 73 1020.7
20260831185022 71 273 0.9 2.6 0.00 0.05 0.00 75 1020.8
20260831184021 71 94 0.9 1.7 0.00 0.05 0.00 74 1020.7
20260831183021 72 267 0.9 2.6 0.00 0.05 0.00 72 1020.8
20260831182022 72 274 0.9 2.6 0.00 0.05 0.00 73 1020.9
20260831181022 72 264 0.9 2.6 0.00 0.05 0.00 75 1020.9
20260831180047 72 329 0.9 3.5 0.00 0.05 0.00 73 1020.8
20260831175022 71 304 0.9 3.5 0.00 0.05 0.00 73 1020.9
20260831174022 71 271 1.7 2.6 0.00 0.05 0.00 73 1020.8
20260831173023 71 271 0.9 2.6 0.00 0.05 0.00 71 1020.9
20260831172023 71 246 0.9 1.7 0.00 0.05 0.00 69 1021.1
20260831171023 72 274 0.9 2.6 0.00 0.05 0.00 72 1021.4
20260831170023 72 286 0.9 2.6 0.00 0.05 0.00 68 1021.5
20260831165023 71 237 0.9 2.6 0.00 0.05 0.00 70 1021.5
20260831164021 71 248 0.0 1.7 0.00 0.05 0.00 70 1021.4
20260831163021 71 287 0.9 1.7 0.00 0.05 0.00 70 1021.5
20260831162021 71 271 1.7 3.5 0.00 0.05 0.00 70 1021.6
20260831161021 70 352 0.9 2.6 0.00 0.05 0.00 70 1021.7
20260831160021 70 173 0.9 1.7 0.00 0.05 0.00 74 1021.9
20260831155021 70 302 0.9 2.6 0.00 0.05 0.00 70 1022.0
20260831154022 70 46 0.0 0.9 0.00 0.05 0.00 71 1022.0
20260831153022 70 283 0.9 1.7 0.00 0.05 0.00 68 1021.9
20260831152022 70 271 0.9 1.7 0.00 0.05 0.00 74 1021.8
20260831151022 69 340 0.9 1.7 0.00 0.05 0.00 75 1021.8
20260831150048 68 352 1.7 1.7 0.00 0.05 0.00 77 1021.7
20260831145023 68 19 0.9 1.7 0.00 0.05 0.00 78 1021.7
20260831144023 68 321 0.9 1.7 0.00 0.05 0.00 77 1021.9
20260831143023 67 19 0.9 1.7 0.00 0.05 0.00 79 1021.8
20260831142023 67 26 0.9 2.6 0.00 0.05 0.00 80 1021.8
20260831141023 67 354 0.9 1.7 0.00 0.05 0.00 80 1021.7
20260831140048 66 346 0.9 0.9 0.00 0.05 0.00 81 1021.7
20260831135024 66 345 0.9 1.7 0.00 0.05 0.00 82 1021.6
20260831134023 65 32 0.9 1.7 0.00 0.05 0.00 84 1021.5
20260831133023 65 44 0.9 1.7 0.00 0.05 0.00 86 1021.6
20260831132050 64 346 0.9 1.7 0.00 0.05 0.00 88 1021.5
20260831131025 63 11 0.9 1.7 0.00 0.05 0.00 89 1021.6
20260831130025 62 36 0.9 1.7 0.00 0.05 0.00 92 1021.8
20260831125025 62 24 0.9 1.7 0.00 0.05 0.00 93 1021.8
20260831124025 61 347 0.9 0.9 0.00 0.05 0.00 94 1021.8
20260831123025 61 26 0.9 0.9 0.00 0.05 0.00 96 1021.9
20260831122025 60 6 0.9 1.7 0.00 0.05 0.00 97 1021.8
20260831121026 60 50 0.9 1.7 0.00 0.05 0.00 98 1021.8
20260831120051 60 6 0.0 0.9 0.00 0.05 0.00 98 1021.9
20260831115026 59 63 0.0 0.9 0.00 0.05 0.00 98 1021.7
20260831114026 59 279 0.0 0.9 0.00 0.05 0.00 98 1021.7